Hourly Weather Rudnya Zhuravleva

Today, 16 May, Sunday

Time Temperature Precipitation Wind Pressure Humidity
00:00 +12°C° 0 mm 2 mps 746 mmHg 92%
01:00 +12°C° 0 mm 1 mps 747 mmHg 93%
02:00 +12°C° 0 mm 1 mps 747 mmHg 94%
03:00 +12°C° 0 mm 1 mps 747 mmHg 94%
04:00 +12°C° 0 mm 1 mps 747 mmHg 94%
05:00 +12°C° 0 mm 1 mps 747 mmHg 94%
06:00 +13°C° 0 mm 1 mps 747 mmHg 89%
07:00 +15°C° 0 mm 1 mps 747 mmHg 85%
08:00 +16°C° 0 mm 2 mps 748 mmHg 80%
09:00 +18°C° 0 mm 2 mps 748 mmHg 73%
10:00 +19°C° 0 mm 2 mps 748 mmHg 65%
11:00 +21°C° 0 mm 2 mps 748 mmHg 58%
12:00 +21°C° 0 mm 2 mps 747 mmHg 55%
13:00 +23°C° 0 mm 2 mps 747 mmHg 53%
14:00 +24°C° 0 mm 2 mps 747 mmHg 51%
15:00 +23°C° 0 mm 2 mps 747 mmHg 54%
16:00 +23°C° 0 mm 2 mps 747 mmHg 58%
17:00 +23°C° 0 mm 2 mps 746 mmHg 62%
18:00 +20°C° 0 mm 2 mps 746 mmHg 69%
19:00 +18°C° 0 mm 3 mps 746 mmHg 76%
20:00 +16°C° 0 mm 3 mps 746 mmHg 83%
21:00 +16°C° 0 mm 2 mps 746 mmHg 84%
22:00 +15°C° 0 mm 2 mps 746 mmHg 86%
23:00 +15°C° 0 mm 2 mps 746 mmHg 88%

Tomorrow, 17 May, Monday

Time Temperature Precipitation Wind Pressure Humidity
00:00 +15°C° 0 mm 2 mps 746 mmHg 88%
01:00 +14°C° 0 mm 2 mps 746 mmHg 88%
02:00 +14°C° 0 mm 2 mps 746 mmHg 88%
03:00 +14°C° 0 mm 2 mps 745 mmHg 88%
04:00 +14°C° 0 mm 2 mps 745 mmHg 88%
05:00 +14°C° 0 mm 2 mps 745 mmHg 88%
06:00 +15°C° 0 mm 2 mps 745 mmHg 85%
07:00 +16°C° 0 mm 2 mps 745 mmHg 82%
08:00 +18°C° 0 mm 2 mps 745 mmHg 79%
09:00 +18°C° 0 mm 2 mps 744 mmHg 76%
10:00 +19°C° 0 mm 3 mps 744 mmHg 74%
11:00 +20°C° 0 mm 3 mps 743 mmHg 72%
12:00 +21°C° 0 mm 3 mps 743 mmHg 70%
13:00 +22°C° 0 mm 3 mps 742 mmHg 69%
14:00 +22°C° 0 mm 3 mps 741 mmHg 68%
15:00 +22°C° 0.4 mm 3 mps 741 mmHg 71%
16:00 +22°C° 0.4 mm 3 mps 740 mmHg 73%
17:00 +21°C° 0.4 mm 4 mps 740 mmHg 76%
18:00 +20°C° 0.5 mm 3 mps 740 mmHg 82%
19:00 +19°C° 0.5 mm 3 mps 739 mmHg 87%
20:00 +17°C° 0.5 mm 2 mps 739 mmHg 92%
21:00 +17°C° 1.3 mm 2 mps 739 mmHg 94%
22:00 +16°C° 1.3 mm 2 mps 739 mmHg 96%
23:00 +15°C° 1.3 mm 2 mps 738 mmHg 98%

Day after tomorrow, 18 May, Tuesday

Time Temperature Precipitation Wind Pressure Humidity
00:00 +15°C° 0.2 mm 2 mps 738 mmHg 98%
01:00 +15°C° 0.2 mm 2 mps 738 mmHg 98%
02:00 +15°C° 0.2 mm 2 mps 738 mmHg 98%
03:00 +14°C° 0.3 mm 3 mps 738 mmHg 98%
04:00 +14°C° 0.3 mm 3 mps 738 mmHg 98%
05:00 +14°C° 0.3 mm 3 mps 737 mmHg 97%
06:00 +14°C° 0.2 mm 3 mps 738 mmHg 97%
07:00 +14°C° 0.2 mm 4 mps 738 mmHg 96%
08:00 +14°C° 0.2 mm 4 mps 739 mmHg 96%
09:00 +17°C° 0.1 mm 4 mps 739 mmHg 86%
10:00 +19°C° 0.1 mm 4 mps 740 mmHg 77%
11:00 +21°C° 0.1 mm 5 mps 740 mmHg 67%
12:00 +21°C° 0.8 mm 5 mps 740 mmHg 71%
13:00 +21°C° 0.8 mm 5 mps 740 mmHg 74%
14:00 +20°C° 0.8 mm 5 mps 740 mmHg 78%
15:00 +20°C° 1 mm 4 mps 740 mmHg 80%
16:00 +19°C° 1 mm 4 mps 740 mmHg 82%
17:00 +19°C° 1 mm 4 mps 740 mmHg 85%
18:00 +18°C° 0.5 mm 3 mps 740 mmHg 87%
19:00 +16°C° 0.5 mm 3 mps 740 mmHg 90%
20:00 +15°C° 0.5 mm 2 mps 740 mmHg 92%
21:00 +15°C° 0 mm 2 mps 740 mmHg 94%
22:00 +14°C° 0 mm 2 mps 740 mmHg 95%
23:00 +14°C° 0 mm 2 mps 740 mmHg 96%

19 May, Wednesday

Time Temperature Precipitation Wind Pressure Humidity
00:00 +14°C° 0 mm 2 mps 739 mmHg 96%
01:00 +14°C° 0 mm 2 mps 739 mmHg 97%
02:00 +13°C° 0 mm 2 mps 739 mmHg 97%
03:00 +13°C° 0 mm 1 mps 739 mmHg 97%
04:00 +14°C° 0 mm 1 mps 739 mmHg 97%
05:00 +14°C° 0 mm 1 mps 739 mmHg 97%
06:00 +14°C° 0.3 mm 1 mps 738 mmHg 96%
07:00 +14°C° 0.3 mm 1 mps 738 mmHg 96%
08:00 +15°C° 0.3 mm 1 mps 738 mmHg 95%
09:00 +15°C° 0.6 mm 1 mps 739 mmHg 95%
10:00 +15°C° 0.6 mm 2 mps 739 mmHg 94%
11:00 +15°C° 0.6 mm 2 mps 739 mmHg 93%
12:00 +15°C° 0.3 mm 2 mps 739 mmHg 93%
13:00 +14°C° 0.3 mm 3 mps 739 mmHg 93%
14:00 +14°C° 0.3 mm 4 mps 739 mmHg 93%
15:00 +13°C° 0.3 mm 4 mps 739 mmHg 94%
16:00 +12°C° 0.3 mm 5 mps 740 mmHg 94%
17:00 +10°C° 0.3 mm 5 mps 740 mmHg 95%
18:00 +9°C° 0.4 mm 6 mps 740 mmHg 94%
19:00 +9°C° 0.4 mm 6 mps 741 mmHg 94%
20:00 +8°C° 0.4 mm 6 mps 741 mmHg 94%
21:00 +8°C° 0.8 mm 6 mps 741 mmHg 94%
22:00 +8°C° 0.8 mm 7 mps 742 mmHg 95%
23:00 +8°C° 0.8 mm 7 mps 742 mmHg 95%

20 May, Thursday

Time Temperature Precipitation Wind Pressure Humidity
00:00 +8°C° 1 mm 6 mps 742 mmHg 95%
01:00 +8°C° 1 mm 6 mps 742 mmHg 95%
02:00 +8°C° 1 mm 6 mps 743 mmHg 94%
03:00 +8°C° 0.1 mm 6 mps 743 mmHg 94%
04:00 +8°C° 0.1 mm 5 mps 743 mmHg 94%
05:00 +10°C° 0.1 mm 4 mps 743 mmHg 94%
06:00 +9°C° 0.1 mm 5 mps 744 mmHg 93%
07:00 +9°C° 0.1 mm 5 mps 744 mmHg 92%
08:00 +10°C° 0.1 mm 5 mps 744 mmHg 90%
09:00 +12°C° 0.1 mm 5 mps 745 mmHg 84%
10:00 +13°C° 0.1 mm 5 mps 745 mmHg 77%
11:00 +15°C° 0.1 mm 5 mps 745 mmHg 71%
12:00 +15°C° 0 mm 5 mps 745 mmHg 67%
13:00 +17°C° 0 mm 4 mps 746 mmHg 64%
14:00 +17°C° 0 mm 4 mps 746 mmHg 61%
15:00 +17°C° 0 mm 4 mps 746 mmHg 63%
16:00 +17°C° 0 mm 3 mps 746 mmHg 64%
17:00 +17°C° 0 mm 3 mps 746 mmHg 66%
18:00 +14°C° 0 mm 3 mps 746 mmHg 71%
19:00 +14°C° 0 mm 2 mps 746 mmHg 77%
20:00 +13°C° 0 mm 2 mps 746 mmHg 82%
21:00 +12°C° 0 mm 2 mps 746 mmHg 82%
22:00 +12°C° 0 mm 2 mps 746 mmHg 83%
23:00 +12°C° 0 mm 2 mps 746 mmHg 83%

21 May, Friday

Time Temperature Precipitation Wind Pressure Humidity
00:00 +10°C° 0 mm 2 mps 746 mmHg 85%
01:00 +10°C° 0 mm 2 mps 746 mmHg 86%
02:00 +10°C° 0 mm 3 mps 746 mmHg 88%
03:00 +10°C° 0.3 mm 3 mps 745 mmHg 88%
04:00 +10°C° 0.3 mm 4 mps 745 mmHg 87%
05:00 +10°C° 0.3 mm 4 mps 745 mmHg 87%
06:00 +10°C° 1.5 mm 4 mps 745 mmHg 89%
07:00 +9°C° 1.5 mm 5 mps 745 mmHg 90%
08:00 +9°C° 1.5 mm 5 mps 744 mmHg 92%
09:00 +9°C° 2.6 mm 5 mps 744 mmHg 92%
10:00 +9°C° 2.6 mm 6 mps 745 mmHg 92%
11:00 +9°C° 2.6 mm 6 mps 745 mmHg 92%
12:00 +9°C° 1.7 mm 5 mps 745 mmHg 92%
13:00 +9°C° 1.7 mm 5 mps 746 mmHg 92%
14:00 +10°C° 1.7 mm 4 mps 746 mmHg 92%
15:00 +11°C° 0.1 mm 3 mps 746 mmHg 88%
16:00 +13°C° 0.1 mm 2 mps 747 mmHg 84%
17:00 +14°C° 0.1 mm 2 mps 747 mmHg 80%
18:00 +13°C° 0 mm 2 mps 748 mmHg 84%
19:00 +12°C° 0 mm 2 mps 748 mmHg 87%
20:00 +10°C° 0 mm 2 mps 749 mmHg 91%
21:00 +9°C° 0 mm 2 mps 749 mmHg 91%
22:00 +9°C° 0 mm 2 mps 749 mmHg 91%
23:00 +8°C° 0 mm 2 mps 750 mmHg 92%
Show more